• In Uzbekistan
  • List of Countries
  • For 7 days
  • Water Temperature
  • Satellite Maps
  • Weather Map
  • Weather Widgets
  • user-avatar
    Login

    Hourly Weather Eisenstadt

    Today, 5 December, Monday

    Time Temperature Precipitation Wind Pressure Humidity
    00:00 -5°C° 0 mm 2 mps 732 mmHg 77%
    01:00 -5°C° 0 mm 2 mps 732 mmHg 75%
    02:00 -5°C° 0 mm 2 mps 732 mmHg 74%
    03:00 -4°C° 0 mm 2 mps 732 mmHg 73%
    04:00 -4°C° 0 mm 2 mps 731 mmHg 72%
    05:00 -4°C° 0 mm 2 mps 731 mmHg 72%
    06:00 -4°C° 0 mm 2 mps 731 mmHg 72%
    07:00 -4°C° 0 mm 2 mps 731 mmHg 72%
    08:00 -3°C° 0 mm 2 mps 731 mmHg 68%
    09:00 -2°C° 0 mm 3 mps 731 mmHg 64%
    10:00 -1°C° 0 mm 3 mps 731 mmHg 60%
    11:00 0°C° 0 mm 3 mps 731 mmHg 58%
    12:00 +1°C° 0 mm 3 mps 731 mmHg 56%
    13:00 +1°C° 0 mm 3 mps 730 mmHg 53%
    14:00 +1°C° 0 mm 2 mps 730 mmHg 61%
    15:00 -2°C° 0 mm 2 mps 730 mmHg 68%
    16:00 -3°C° 0 mm 2 mps 729 mmHg 76%
    17:00 -4°C° 0 mm 2 mps 729 mmHg 78%
    18:00 -2°C° 0 mm 1 mps 729 mmHg 80%
    19:00 -2°C° 0 mm 1 mps 729 mmHg 83%
    20:00 -2°C° 0 mm 1 mps 729 mmHg 84%
    21:00 -2°C° 0 mm 1 mps 729 mmHg 84%
    22:00 -2°C° 0 mm 1 mps 729 mmHg 85%
    23:00 -2°C° 0 mm 1 mps 729 mmHg 85%

    Tomorrow, 6 December, Tuesday

    Time Temperature Precipitation Wind Pressure Humidity
    00:00 -2°C° 0 mm 1 mps 729 mmHg 85%
    01:00 -2°C° 0 mm 1 mps 729 mmHg 85%
    02:00 -2°C° 0 mm 1 mps 729 mmHg 84%
    03:00 -2°C° 0 mm 1 mps 729 mmHg 83%
    04:00 -2°C° 0 mm 1 mps 729 mmHg 83%
    05:00 -2°C° 0 mm 1 mps 729 mmHg 82%
    06:00 -2°C° 0 mm 1 mps 729 mmHg 82%
    07:00 -2°C° 0 mm 1 mps 729 mmHg 82%
    08:00 0°C° 0 mm 1 mps 729 mmHg 74%
    09:00 +1°C° 0 mm 1 mps 730 mmHg 66%
    10:00 +3°C° 0 mm 1 mps 730 mmHg 59%
    11:00 +4°C° 0 mm 1 mps 730 mmHg 56%
    12:00 +5°C° 0 mm 1 mps 730 mmHg 53%
    13:00 +5°C° 0 mm 2 mps 730 mmHg 50%
    14:00 +3°C° 0 mm 2 mps 730 mmHg 58%
    15:00 +1°C° 0 mm 2 mps 730 mmHg 66%
    16:00 -2°C° 0 mm 2 mps 730 mmHg 74%
    17:00 -3°C° 0 mm 2 mps 731 mmHg 75%
    18:00 -3°C° 0 mm 2 mps 731 mmHg 75%
    19:00 -3°C° 0 mm 2 mps 732 mmHg 75%
    20:00 -3°C° 0 mm 2 mps 732 mmHg 76%
    21:00 -3°C° 0 mm 2 mps 732 mmHg 77%
    22:00 -4°C° 0 mm 2 mps 732 mmHg 78%
    23:00 -4°C° 0 mm 2 mps 733 mmHg 79%

    Day after tomorrow, 7 December, Wednesday

    Time Temperature Precipitation Wind Pressure Humidity
    00:00 -4°C° 0 mm 2 mps 733 mmHg 79%
    01:00 -4°C° 0 mm 2 mps 733 mmHg 80%
    02:00 -2°C° 0 mm 1 mps 733 mmHg 80%
    03:00 -2°C° 0 mm 1 mps 733 mmHg 81%
    04:00 -2°C° 0 mm 1 mps 733 mmHg 81%
    05:00 -2°C° 0 mm 1 mps 733 mmHg 82%
    06:00 -3°C° 0 mm 1 mps 734 mmHg 84%
    07:00 -3°C° 0 mm 1 mps 734 mmHg 85%
    08:00 -1°C° 0 mm 1 mps 734 mmHg 78%
    09:00 0°C° 0 mm 1 mps 735 mmHg 72%
    10:00 +1°C° 0 mm 1 mps 736 mmHg 66%
    11:00 +2°C° 0 mm 1 mps 735 mmHg 65%
    12:00 +3°C° 0 mm 1 mps 735 mmHg 63%
    13:00 +3°C° 0 mm 1 mps 735 mmHg 62%
    14:00 +2°C° 0 mm 1 mps 735 mmHg 70%
    15:00 -2°C° 0 mm 2 mps 735 mmHg 78%
    16:00 -3°C° 0 mm 2 mps 735 mmHg 87%
    17:00 -3°C° 0 mm 2 mps 735 mmHg 86%
    18:00 -3°C° 0 mm 2 mps 735 mmHg 86%
    19:00 -4°C° 0 mm 2 mps 735 mmHg 86%
    20:00 -4°C° 0 mm 2 mps 735 mmHg 85%
    21:00 -4°C° 0 mm 2 mps 735 mmHg 84%
    22:00 -4°C° 0 mm 2 mps 735 mmHg 84%
    23:00 -4°C° 0 mm 2 mps 735 mmHg 84%

    8 December, Thursday

    Time Temperature Precipitation Wind Pressure Humidity
    00:00 -4°C° 0 mm 2 mps 735 mmHg 84%
    01:00 -4°C° 0 mm 2 mps 735 mmHg 84%
    02:00 -4°C° 0 mm 2 mps 734 mmHg 83%
    03:00 -4°C° 0 mm 2 mps 734 mmHg 83%
    04:00 -4°C° 0 mm 2 mps 734 mmHg 82%
    05:00 -4°C° 0 mm 2 mps 734 mmHg 83%
    06:00 -4°C° 0 mm 2 mps 734 mmHg 83%
    07:00 -4°C° 0 mm 2 mps 734 mmHg 84%
    08:00 -3°C° 0 mm 2 mps 734 mmHg 77%
    09:00 -1°C° 0 mm 2 mps 734 mmHg 70%
    10:00 +1°C° 0 mm 2 mps 735 mmHg 62%
    11:00 +2°C° 0 mm 2 mps 734 mmHg 60%
    12:00 +3°C° 0 mm 2 mps 734 mmHg 58%
    13:00 +4°C° 0 mm 2 mps 734 mmHg 56%
    14:00 +2°C° 0 mm 2 mps 733 mmHg 64%
    15:00 +1°C° 0 mm 2 mps 733 mmHg 72%
    16:00 -2°C° 0 mm 2 mps 732 mmHg 80%
    17:00 -2°C° 0 mm 2 mps 732 mmHg 81%
    18:00 -1°C° 0 mm 1 mps 732 mmHg 81%
    19:00 -1°C° 0 mm 1 mps 732 mmHg 82%
    20:00 -1°C° 0 mm 1 mps 732 mmHg 80%
    21:00 -1°C° 0 mm 1 mps 732 mmHg 79%
    22:00 -1°C° 0 mm 1 mps 732 mmHg 77%
    23:00 -1°C° 0 mm 1 mps 732 mmHg 75%

    9 December, Friday

    Time Temperature Precipitation Wind Pressure Humidity
    00:00 -1°C° 0 mm 1 mps 732 mmHg 74%
    01:00 -1°C° 0 mm 1 mps 732 mmHg 72%
    02:00 0°C° 0 mm 1 mps 732 mmHg 69%
    03:00 0°C° 0 mm 1 mps 731 mmHg 67%
    04:00 0°C° 0 mm 1 mps 731 mmHg 65%
    05:00 0°C° 0 mm 1 mps 731 mmHg 65%
    06:00 0°C° 0 mm 1 mps 731 mmHg 64%
    07:00 0°C° 0 mm 1 mps 731 mmHg 64%
    08:00 +2°C° 0 mm 1 mps 732 mmHg 57%
    09:00 +3°C° 0 mm 1 mps 732 mmHg 51%
    10:00 +5°C° 0 mm 1 mps 732 mmHg 45%
    11:00 +6°C° 0 mm 1 mps 732 mmHg 44%
    12:00 +7°C° 0 mm 1 mps 731 mmHg 43%
    13:00 +8°C° 0 mm 1 mps 731 mmHg 42%
    14:00 +6°C° 0 mm 1 mps 731 mmHg 49%
    15:00 +4°C° 0 mm 1 mps 730 mmHg 56%
    16:00 +2°C° 0 mm 1 mps 730 mmHg 62%
    17:00 +2°C° 0 mm 1 mps 730 mmHg 60%
    18:00 +2°C° 0 mm 1 mps 730 mmHg 57%
    19:00 -1°C° 0 mm 2 mps 730 mmHg 55%
    20:00 +1°C° 0 mm 2 mps 730 mmHg 53%
    21:00 +1°C° 0 mm 2 mps 730 mmHg 51%
    22:00 +1°C° 0 mm 2 mps 730 mmHg 50%
    23:00 +1°C° 0 mm 2 mps 729 mmHg 50%

    10 December, Saturday

    Time Temperature Precipitation Wind Pressure Humidity
    00:00 -1°C° 0 mm 2 mps 729 mmHg 50%
    01:00 +1°C° 0 mm 1 mps 729 mmHg 50%
    02:00 +1°C° 0 mm 1 mps 729 mmHg 50%
    03:00 +1°C° 0 mm 1 mps 728 mmHg 50%
    04:00 +1°C° 0 mm 1 mps 728 mmHg 49%
    05:00 +1°C° 0 mm 1 mps 728 mmHg 53%
    06:00 +1°C° 0 mm 1 mps 728 mmHg 57%
    07:00 0°C° 0 mm 1 mps 728 mmHg 60%
    08:00 +2°C° 0 mm 1 mps 728 mmHg 55%
    09:00 +4°C° 0 mm 1 mps 728 mmHg 50%
    10:00 +5°C° 0 mm 0 mps 729 mmHg 45%
    11:00 +7°C° 0 mm 1 mps 728 mmHg 44%
    12:00 +8°C° 0 mm 1 mps 728 mmHg 44%
    13:00 +8°C° 0 mm 1 mps 728 mmHg 44%
    14:00 +6°C° 0 mm 1 mps 727 mmHg 50%
    15:00 +4°C° 0 mm 1 mps 726 mmHg 56%
    16:00 +2°C° 0 mm 1 mps 726 mmHg 63%
    17:00 +1°C° 0 mm 1 mps 726 mmHg 63%
    18:00 +1°C° 0 mm 1 mps 726 mmHg 64%
    19:00 +1°C° 0 mm 1 mps 725 mmHg 65%
    20:00 +1°C° 0 mm 1 mps 725 mmHg 63%
    21:00 +1°C° 0 mm 1 mps 725 mmHg 62%
    22:00 +1°C° 0 mm 1 mps 725 mmHg 61%
    23:00 +1°C° 0 mm 1 mps 725 mmHg 60%
    Show more